N144TA KFLG-KEGE

Flight info

Callsign N144TA
Flight time 1h 19m
Altitude 45000
Route FLG1 OATES DVC JESIE
Aircraft PC24/M-SBDGIRWY/LB2

Departure

Time 2026-05-08 03:47
Airport Flagstaff Pulliam Airport (KFLG)

Arrival

Time 2026-05-08 05:07
Airport Eagle County Regional Airport (KEGE)
Time Latitude Longitude Altitude Speed Heading
2026-05-08 03:36 35.13512 -111.67742 7025 ft 0 kts 224°
2026-05-08 03:40 35.13503 -111.67741 7018 ft 1 kts 148°
2026-05-08 03:40 35.13491 -111.67724 7017 ft 7 kts 130°
2026-05-08 03:41 35.13441 -111.67651 7017 ft 14 kts 128°
2026-05-08 03:41 35.13458 -111.67591 7016 ft 5 kts 317°
2026-05-08 03:41 35.13478 -111.67688 7021 ft 16 kts 356°
2026-05-08 03:41 35.13555 -111.67612 7016 ft 14 kts 41°
2026-05-08 03:42 35.13623 -111.67540 7016 ft 12 kts 42°
2026-05-08 03:42 35.13683 -111.67473 7015 ft 12 kts 39°
2026-05-08 03:42 35.13755 -111.67399 7011 ft 15 kts 40°
2026-05-08 03:42 35.13838 -111.67311 7010 ft 16 kts 41°
2026-05-08 03:43 35.13922 -111.67221 7005 ft 16 kts 41°
2026-05-08 03:43 35.14011 -111.67127 7002 ft 17 kts 40°
2026-05-08 03:43 35.14098 -111.67033 7006 ft 16 kts 41°
2026-05-08 03:43 35.14178 -111.66948 7000 ft 16 kts 42°
2026-05-08 03:44 35.14268 -111.66852 7005 ft 19 kts 41°
2026-05-08 03:44 35.14374 -111.66738 7007 ft 22 kts 41°
2026-05-08 03:44 35.14504 -111.66600 7004 ft 26 kts 40°
2026-05-08 03:44 35.14638 -111.66459 7000 ft 25 kts 41°
2026-05-08 03:45 35.14763 -111.66326 6999 ft 24 kts 43°
2026-05-08 03:45 35.14898 -111.66181 6998 ft 27 kts 41°
2026-05-08 03:45 35.14992 -111.66055 7000 ft 13 kts 96°
2026-05-08 03:45 35.14987 -111.66037 7000 ft 0 kts 115°
2026-05-08 03:46 35.14983 -111.66029 7000 ft 7 kts 118°
2026-05-08 03:46 35.14912 -111.65993 6994 ft 12 kts 216°
2026-05-08 03:46 35.14895 -111.66011 6998 ft 0 kts 221°
2026-05-08 03:46 35.14868 -111.66040 6997 ft 27 kts 221°
2026-05-08 03:47 35.14536 -111.66391 6999 ft 97 kts 221°
2026-05-08 03:47 35.13871 -111.67097 7011 ft 155 kts 221°
2026-05-08 03:47 35.12957 -111.68051 7316 ft 185 kts 219°
2026-05-08 03:47 35.11888 -111.69097 7845 ft 209 kts 208°
2026-05-08 03:48 35.10411 -111.69297 8449 ft 226 kts 169°
2026-05-08 03:48 35.08903 -111.68912 9153 ft 212 kts 171°
2026-05-08 03:48 35.07442 -111.68820 9701 ft 208 kts 184°
2026-05-08 03:48 35.05984 -111.68984 10223 ft 216 kts 187°
2026-05-08 03:49 35.04422 -111.69178 10479 ft 242 kts 185°
2026-05-08 03:49 35.02659 -111.68791 10507 ft 276 kts 159°
2026-05-08 03:49 35.00952 -111.67478 10486 ft 307 kts 136°
2026-05-08 03:49 34.99719 -111.65250 10469 ft 327 kts 111°
2026-05-08 03:50 34.99370 -111.62496 10459 ft 332 kts 85°
2026-05-08 03:50 35.00033 -111.59823 10456 ft 332 kts 58°
2026-05-08 03:50 35.01539 -111.57836 11429 ft 307 kts 38°
2026-05-08 03:50 35.03144 -111.56299 12914 ft 278 kts 35°
2026-05-08 03:51 35.04640 -111.54986 14346 ft 252 kts 33°
2026-05-08 03:51 35.06003 -111.53784 15347 ft 244 kts 34°
2026-05-08 03:51 35.07381 -111.52537 16015 ft 247 kts 34°
2026-05-08 03:51 35.08761 -111.51278 16756 ft 248 kts 34°
2026-05-08 03:52 35.10154 -111.50012 17474 ft 250 kts 34°
2026-05-08 03:52 35.11557 -111.48740 18198 ft 252 kts 34°
2026-05-08 03:52 35.12974 -111.47453 18841 ft 254 kts 34°
2026-05-08 03:52 35.14400 -111.46158 19464 ft 256 kts 35°
2026-05-08 03:53 35.15834 -111.44854 20088 ft 257 kts 35°
2026-05-08 03:53 35.17277 -111.43542 20723 ft 259 kts 35°
2026-05-08 03:53 35.18707 -111.42241 21347 ft 260 kts 35°
2026-05-08 03:53 35.20168 -111.40912 21981 ft 262 kts 35°
2026-05-08 03:54 35.21638 -111.39574 22617 ft 264 kts 35°
2026-05-08 03:54 35.23122 -111.38221 23249 ft 266 kts 35°
2026-05-08 03:54 35.24612 -111.36862 23844 ft 268 kts 35°
2026-05-08 03:54 35.26099 -111.35506 24363 ft 270 kts 35°
2026-05-08 03:55 35.27612 -111.34126 24890 ft 272 kts 35°
2026-05-08 03:55 35.29136 -111.32735 25419 ft 274 kts 35°
2026-05-08 03:55 35.30667 -111.31336 25940 ft 276 kts 35°
2026-05-08 03:55 35.32210 -111.29926 26464 ft 277 kts 35°
2026-05-08 03:56 35.33766 -111.28505 26961 ft 279 kts 35°
2026-05-08 03:56 35.35331 -111.27073 27500 ft 282 kts 35°
2026-05-08 03:56 35.36905 -111.25632 28030 ft 284 kts 35°
2026-05-08 03:56 35.38472 -111.24198 28545 ft 286 kts 35°
2026-05-08 03:57 35.40075 -111.22730 29061 ft 288 kts 35°
2026-05-08 03:57 35.41687 -111.21253 29571 ft 290 kts 35°
2026-05-08 03:57 35.43308 -111.19766 30064 ft 292 kts 35°
2026-05-08 03:57 35.44942 -111.18268 30472 ft 294 kts 35°
2026-05-08 03:58 35.46566 -111.16777 30884 ft 295 kts 35°
2026-05-08 03:58 35.48220 -111.15258 31290 ft 297 kts 35°
2026-05-08 03:58 35.49883 -111.13730 31686 ft 299 kts 35°
2026-05-08 03:58 35.51555 -111.12193 32078 ft 301 kts 35°
2026-05-08 03:59 35.53234 -111.10649 32459 ft 302 kts 34°
2026-05-08 03:59 35.54922 -111.09095 32840 ft 304 kts 35°
2026-05-08 03:59 35.56623 -111.07529 33217 ft 306 kts 34°
2026-05-08 03:59 35.58330 -111.05956 33591 ft 307 kts 34°
2026-05-08 04:00 35.60023 -111.04396 33933 ft 309 kts 34°
2026-05-08 04:00 35.61751 -111.02802 34233 ft 311 kts 34°
2026-05-08 04:00 35.63488 -111.01199 34516 ft 313 kts 34°
2026-05-08 04:00 35.65236 -110.99586 34805 ft 314 kts 34°
2026-05-08 04:01 35.66986 -110.97968 35122 ft 315 kts 34°
2026-05-08 04:01 35.68737 -110.96350 35457 ft 314 kts 34°
2026-05-08 04:01 35.70482 -110.94736 35795 ft 314 kts 34°
2026-05-08 04:01 35.72206 -110.93140 36121 ft 313 kts 34°
2026-05-08 04:02 35.73951 -110.91524 36446 ft 313 kts 34°
2026-05-08 04:02 35.75691 -110.89912 36776 ft 312 kts 34°
2026-05-08 04:02 35.77430 -110.88300 37095 ft 312 kts 34°
2026-05-08 04:02 35.79163 -110.86694 37415 ft 311 kts 34°
2026-05-08 04:03 35.80871 -110.85108 37711 ft 311 kts 34°
2026-05-08 04:03 35.84326 -110.81900 38339 ft 310 kts 34°
2026-05-08 04:03 35.86049 -110.80298 38623 ft 309 kts 34°
2026-05-08 04:04 35.87774 -110.78699 38853 ft 310 kts 34°
2026-05-08 04:04 35.88918 -110.77633 38957 ft 312 kts 34°
2026-05-08 04:04 35.90650 -110.76010 39148 ft 313 kts 34°
2026-05-08 04:04 35.92390 -110.74379 39322 ft 314 kts 34°
2026-05-08 04:05 35.94707 -110.72211 39573 ft 316 kts 34°
2026-05-08 04:05 35.95894 -110.71099 39696 ft 317 kts 34°
2026-05-08 04:05 35.97635 -110.69467 39875 ft 318 kts 34°
2026-05-08 04:05 35.99404 -110.67807 40055 ft 319 kts 34°
2026-05-08 04:06 36.01181 -110.66140 40231 ft 321 kts 34°
2026-05-08 04:06 36.02967 -110.64464 40404 ft 322 kts 34°
2026-05-08 04:06 36.04755 -110.62783 40583 ft 323 kts 34°
2026-05-08 04:06 36.06554 -110.61092 40759 ft 325 kts 34°
2026-05-08 04:07 36.08333 -110.59419 40930 ft 326 kts 34°
2026-05-08 04:07 36.10142 -110.57716 41093 ft 327 kts 34°
2026-05-08 04:07 36.11959 -110.56005 41264 ft 329 kts 34°
2026-05-08 04:07 36.13785 -110.54283 41440 ft 330 kts 34°
2026-05-08 04:08 36.15612 -110.52562 41607 ft 331 kts 34°
2026-05-08 04:08 36.17451 -110.50827 41769 ft 332 kts 34°
2026-05-08 04:08 36.19291 -110.49090 41945 ft 333 kts 34°
2026-05-08 04:08 36.21141 -110.47342 42117 ft 335 kts 34°
2026-05-08 04:09 36.22976 -110.45608 42287 ft 336 kts 34°
2026-05-08 04:09 36.24839 -110.43846 42446 ft 337 kts 34°
2026-05-08 04:09 36.26711 -110.42074 42617 ft 338 kts 34°
2026-05-08 04:09 36.28582 -110.40301 42785 ft 339 kts 34°
2026-05-08 04:10 36.30464 -110.38519 42950 ft 340 kts 34°
2026-05-08 04:10 36.32353 -110.36729 43106 ft 341 kts 34°
2026-05-08 04:10 36.34219 -110.34957 43266 ft 342 kts 34°
2026-05-08 04:10 36.36117 -110.33156 43431 ft 343 kts 34°
2026-05-08 04:11 36.38020 -110.31349 43592 ft 344 kts 34°
2026-05-08 04:11 36.39929 -110.29535 43745 ft 345 kts 34°
2026-05-08 04:11 36.41843 -110.27714 43908 ft 346 kts 34°
2026-05-08 04:11 36.43733 -110.25915 44057 ft 347 kts 34°
2026-05-08 04:12 36.45654 -110.24086 44214 ft 348 kts 34°
2026-05-08 04:12 36.47580 -110.22251 44366 ft 349 kts 34°
2026-05-08 04:12 36.49511 -110.20409 44515 ft 350 kts 34°
2026-05-08 04:12 36.51449 -110.18560 44654 ft 351 kts 34°
2026-05-08 04:13 36.53391 -110.16705 44796 ft 352 kts 34°
2026-05-08 04:13 36.55335 -110.14849 44935 ft 352 kts 34°
2026-05-08 04:13 36.59267 -110.11091 44970 ft 360 kts 34°
2026-05-08 04:14 36.63297 -110.07230 44961 ft 369 kts 34°
2026-05-08 04:14 36.67391 -110.03305 44961 ft 378 kts 34°
2026-05-08 04:15 36.71608 -109.99255 44956 ft 385 kts 34°
2026-05-08 04:15 36.75898 -109.95130 44955 ft 393 kts 34°
2026-05-08 04:16 36.80262 -109.90927 44951 ft 399 kts 34°
2026-05-08 04:16 36.84664 -109.86681 44950 ft 404 kts 34°
2026-05-08 04:17 36.89147 -109.82351 44949 ft 409 kts 34°
2026-05-08 04:17 36.93681 -109.77965 44955 ft 414 kts 35°
2026-05-08 04:18 36.98254 -109.73533 44955 ft 418 kts 35°
2026-05-08 04:18 37.02846 -109.69078 44956 ft 421 kts 35°
2026-05-08 04:19 37.07502 -109.64552 44951 ft 425 kts 35°
2026-05-08 04:19 37.12192 -109.59987 44958 ft 427 kts 35°
2026-05-08 04:20 37.16828 -109.55463 44949 ft 418 kts 35°
2026-05-08 04:20 37.21337 -109.51059 44943 ft 405 kts 34°
2026-05-08 04:21 37.25809 -109.46690 44976 ft 409 kts 34°
2026-05-08 04:21 37.30328 -109.42261 45008 ft 414 kts 34°
2026-05-08 04:22 37.34836 -109.37836 45030 ft 412 kts 35°
2026-05-08 04:22 37.39352 -109.33399 45048 ft 410 kts 34°
2026-05-08 04:23 37.43845 -109.28977 45055 ft 408 kts 34°
2026-05-08 04:23 37.48298 -109.24586 45058 ft 409 kts 34°
2026-05-08 04:24 37.52795 -109.20146 45055 ft 411 kts 34°
2026-05-08 04:24 37.57311 -109.15681 45039 ft 413 kts 35°
2026-05-08 04:25 37.61806 -109.11228 45011 ft 413 kts 34°
2026-05-08 04:25 37.66311 -109.06759 44994 ft 410 kts 34°
2026-05-08 04:26 37.70797 -109.02300 44966 ft 409 kts 34°
2026-05-08 04:26 37.75266 -108.97844 44915 ft 408 kts 34°
2026-05-08 04:27 37.79687 -108.93419 44893 ft 407 kts 34°
2026-05-08 04:27 37.84124 -108.88962 44844 ft 406 kts 34°
2026-05-08 04:28 37.88547 -108.84504 44814 ft 405 kts 34°
2026-05-08 04:28 37.92920 -108.80084 44704 ft 404 kts 34°
2026-05-08 04:29 37.97324 -108.75622 44673 ft 405 kts 34°
2026-05-08 04:29 38.01729 -108.71141 44672 ft 406 kts 34°
2026-05-08 04:30 38.06146 -108.66635 44683 ft 407 kts 34°
2026-05-08 04:30 38.10563 -108.62117 44681 ft 407 kts 34°
2026-05-08 04:31 38.14973 -108.57591 44694 ft 407 kts 34°
2026-05-08 04:31 38.19353 -108.53084 44708 ft 408 kts 34°
2026-05-08 04:32 38.23763 -108.48530 44727 ft 408 kts 34°
2026-05-08 04:32 38.28175 -108.43962 44754 ft 408 kts 34°
2026-05-08 04:33 38.32557 -108.39409 44772 ft 409 kts 35°
2026-05-08 04:33 38.36972 -108.34810 44793 ft 410 kts 35°
2026-05-08 04:34 38.41354 -108.30231 44715 ft 411 kts 35°
2026-05-08 04:34 38.43584 -108.27899 44283 ft 413 kts 35°
2026-05-08 04:34 38.45801 -108.25575 43865 ft 409 kts 35°
2026-05-08 04:35 38.47992 -108.23272 43449 ft 405 kts 35°
2026-05-08 04:35 38.50149 -108.20997 43043 ft 400 kts 35°
2026-05-08 04:35 38.52285 -108.18736 42644 ft 397 kts 35°
2026-05-08 04:35 38.54401 -108.16490 42249 ft 393 kts 35°
2026-05-08 04:36 38.56470 -108.14286 41867 ft 391 kts 35°
2026-05-08 04:36 38.58557 -108.12059 41490 ft 390 kts 35°
2026-05-08 04:36 38.60640 -108.09832 41102 ft 391 kts 35°
2026-05-08 04:36 38.62725 -108.07600 40748 ft 391 kts 35°
2026-05-08 04:37 38.64817 -108.05357 40403 ft 392 kts 35°
2026-05-08 04:37 38.66909 -108.03112 40062 ft 392 kts 35°
2026-05-08 04:37 38.69002 -108.00862 39716 ft 392 kts 35°
2026-05-08 04:37 38.71087 -107.98615 39382 ft 390 kts 34°
2026-05-08 04:38 38.73134 -107.96405 38992 ft 390 kts 34°
2026-05-08 04:38 38.75211 -107.94158 38495 ft 389 kts 34°
2026-05-08 04:38 38.77275 -107.91921 37944 ft 387 kts 34°
2026-05-08 04:38 38.79330 -107.89688 37401 ft 385 kts 34°
2026-05-08 04:39 38.81370 -107.87464 36866 ft 383 kts 34°
2026-05-08 04:39 38.83368 -107.85280 36366 ft 381 kts 34°
2026-05-08 04:39 38.85383 -107.83071 35864 ft 381 kts 34°
2026-05-08 04:39 38.87401 -107.80858 35376 ft 382 kts 34°
2026-05-08 04:40 38.89434 -107.78626 34894 ft 383 kts 34°
2026-05-08 04:40 38.91462 -107.76397 34423 ft 384 kts 34°
2026-05-08 04:40 38.93488 -107.74165 33944 ft 383 kts 34°
2026-05-08 04:40 38.95513 -107.71931 33413 ft 383 kts 34°
2026-05-08 04:41 38.97534 -107.69696 32882 ft 382 kts 34°
2026-05-08 04:41 38.99527 -107.67490 32373 ft 383 kts 34°
2026-05-08 04:41 39.01547 -107.65251 31869 ft 384 kts 34°
2026-05-08 04:41 39.03578 -107.63000 31365 ft 385 kts 35°
2026-05-08 04:42 39.05623 -107.60734 30763 ft 389 kts 35°
2026-05-08 04:42 39.07677 -107.58455 30176 ft 389 kts 35°
2026-05-08 04:42 39.09724 -107.56181 29512 ft 388 kts 36°
2026-05-08 04:42 39.11771 -107.53903 28829 ft 389 kts 36°
2026-05-08 04:43 39.13798 -107.51645 28176 ft 391 kts 36°
2026-05-08 04:43 39.15861 -107.49344 27656 ft 393 kts 36°
2026-05-08 04:43 39.17944 -107.47022 27153 ft 397 kts 36°
2026-05-08 04:43 39.20019 -107.44704 26653 ft 386 kts 36°
2026-05-08 04:44 39.21990 -107.42482 26147 ft 367 kts 36°
2026-05-08 04:44 39.23866 -107.40347 25647 ft 351 kts 36°
2026-05-08 04:44 39.25710 -107.38391 25142 ft 335 kts 31°
2026-05-08 04:44 39.27618 -107.36790 24656 ft 319 kts 25°
2026-05-08 04:45 39.29570 -107.35540 24188 ft 308 kts 19°
2026-05-08 04:45 39.31529 -107.34643 23727 ft 297 kts 12°
2026-05-08 04:45 39.33520 -107.34078 23205 ft 288 kts
2026-05-08 04:45 39.35446 -107.33446 22661 ft 286 kts 19°
2026-05-08 04:46 39.37154 -107.32105 22129 ft 288 kts 33°
2026-05-08 04:46 39.38651 -107.30396 21701 ft 282 kts 37°
2026-05-08 04:46 39.40045 -107.28704 21317 ft 274 kts 36°
2026-05-08 04:46 39.41488 -107.27129 20934 ft 269 kts 33°
2026-05-08 04:47 39.42961 -107.25631 20575 ft 270 kts 33°
2026-05-08 04:47 39.44457 -107.24191 20209 ft 264 kts 22°
2026-05-08 04:47 39.46206 -107.23614 19865 ft 258 kts
2026-05-08 04:47 39.47991 -107.23450 19532 ft 257 kts 360°
2026-05-08 04:48 39.49783 -107.23363 19195 ft 257 kts 359°
2026-05-08 04:48 39.51569 -107.23294 18849 ft 256 kts 359°
2026-05-08 04:48 39.53322 -107.23229 18521 ft 255 kts 359°
2026-05-08 04:48 39.55099 -107.23163 18084 ft 257 kts 359°
2026-05-08 04:49 39.56893 -107.23101 17543 ft 257 kts 359°
2026-05-08 04:49 39.58667 -107.23045 17002 ft 252 kts 359°
2026-05-08 04:49 39.60423 -107.22993 16458 ft 251 kts 359°
2026-05-08 04:49 39.62147 -107.22943 15945 ft 250 kts 359°
2026-05-08 04:50 39.63907 -107.22896 15424 ft 249 kts 359°
2026-05-08 04:50 39.65617 -107.22857 14922 ft 248 kts 359°
2026-05-08 04:50 39.67343 -107.22823 14420 ft 247 kts 359°
2026-05-08 04:50 39.69039 -107.22793 14129 ft 239 kts 359°
2026-05-08 04:51 39.70658 -107.22762 14082 ft 229 kts 359°
2026-05-08 04:51 39.72255 -107.22732 14086 ft 236 kts 359°
2026-05-08 04:51 39.73914 -107.22701 14052 ft 240 kts 359°
2026-05-08 04:51 39.75589 -107.22625 13940 ft 241 kts
2026-05-08 04:52 39.76639 -107.22135 13940 ft 243 kts 23°
2026-05-08 04:52 39.78109 -107.21025 13939 ft 246 kts 27°
2026-05-08 04:52 39.79559 -107.19829 13940 ft 247 kts 28°
2026-05-08 04:52 39.80998 -107.18619 13943 ft 245 kts 28°
2026-05-08 04:53 39.82426 -107.17408 13948 ft 245 kts 29°
2026-05-08 04:53 39.83859 -107.16193 13941 ft 245 kts 28°
2026-05-08 04:53 39.85277 -107.14992 13940 ft 246 kts 28°
2026-05-08 04:53 39.86710 -107.13774 13933 ft 245 kts 28°
2026-05-08 04:54 39.88131 -107.12560 13921 ft 242 kts 28°
2026-05-08 04:54 39.89536 -107.11349 13934 ft 245 kts 29°
2026-05-08 04:54 39.90973 -107.10126 13914 ft 245 kts 28°
2026-05-08 04:54 39.92393 -107.08913 13912 ft 243 kts 28°
2026-05-08 04:55 39.93653 -107.07281 13909 ft 282 kts 54°
2026-05-08 04:55 39.94459 -107.04766 13931 ft 319 kts 66°
2026-05-08 04:55 39.95146 -107.01917 13928 ft 335 kts 69°
2026-05-08 04:55 39.95833 -106.98960 13917 ft 343 kts 68°
2026-05-08 04:56 39.96572 -106.96006 13911 ft 343 kts 67°
2026-05-08 04:56 39.97335 -106.93044 13908 ft 345 kts 67°
2026-05-08 04:56 39.98071 -106.90100 13906 ft 346 kts 68°
2026-05-08 04:56 39.98806 -106.87116 13895 ft 345 kts 68°
2026-05-08 04:57 39.99548 -106.84134 13893 ft 345 kts 68°
2026-05-08 04:57 40.00288 -106.81174 13888 ft 344 kts 68°
2026-05-08 04:57 40.01030 -106.78191 13891 ft 344 kts 68°
2026-05-08 04:57 40.01769 -106.75213 13849 ft 345 kts 68°
2026-05-08 04:58 40.02501 -106.72230 13847 ft 344 kts 69°
2026-05-08 04:58 40.02798 -106.69137 13838 ft 354 kts 89°
2026-05-08 04:58 40.02291 -106.65972 13842 ft 362 kts 108°
2026-05-08 04:58 40.00982 -106.63148 13840 ft 368 kts 129°
2026-05-08 04:59 39.98997 -106.61039 13841 ft 369 kts 150°
2026-05-08 04:59 39.96584 -106.59934 13840 ft 369 kts 171°
2026-05-08 04:59 39.94040 -106.59925 13857 ft 366 kts 188°
2026-05-08 04:59 39.91504 -106.60331 13858 ft 367 kts 189°
2026-05-08 05:00 39.89014 -106.60767 13790 ft 359 kts 189°
2026-05-08 05:00 39.86571 -106.61177 13157 ft 346 kts 189°
2026-05-08 05:00 39.84208 -106.61549 12986 ft 334 kts 188°
2026-05-08 05:00 39.81956 -106.61909 12982 ft 321 kts 189°
2026-05-08 05:01 39.79746 -106.62272 12997 ft 320 kts 189°
2026-05-08 05:01 39.77530 -106.62635 13000 ft 320 kts 189°
2026-05-08 05:01 39.75325 -106.62992 13012 ft 318 kts 189°
2026-05-08 05:01 39.73169 -106.63338 12805 ft 311 kts 189°
2026-05-08 05:02 39.71076 -106.63939 11855 ft 298 kts 204°
2026-05-08 05:02 39.69387 -106.65166 11445 ft 258 kts 219°
2026-05-08 05:02 39.68146 -106.66651 11314 ft 233 kts 231°
2026-05-08 05:02 39.67217 -106.68246 10938 ft 206 kts 239°
2026-05-08 05:03 39.66681 -106.69857 10575 ft 184 kts 257°
2026-05-08 05:03 39.66468 -106.71481 10582 ft 189 kts 264°
2026-05-08 05:03 39.66287 -106.73128 10562 ft 180 kts 263°
2026-05-08 05:03 39.66111 -106.74710 10076 ft 177 kts 263°
2026-05-08 05:04 39.65945 -106.76245 9792 ft 167 kts 263°
2026-05-08 05:04 39.65784 -106.77753 9778 ft 166 kts 262°
2026-05-08 05:04 39.65624 -106.79219 9254 ft 167 kts 262°
2026-05-08 05:04 39.65461 -106.80713 8780 ft 167 kts 263°
2026-05-08 05:05 39.65299 -106.82203 8296 ft 167 kts 263°
2026-05-08 05:05 39.65142 -106.83654 8003 ft 156 kts 263°
2026-05-08 05:05 39.64997 -106.84992 8008 ft 150 kts 263°
2026-05-08 05:05 39.64860 -106.86268 7596 ft 141 kts 263°
2026-05-08 05:06 39.64726 -106.87512 7166 ft 139 kts 263°
2026-05-08 05:06 39.64591 -106.88732 6874 ft 134 kts 261°
2026-05-08 05:06 39.64462 -106.89911 6645 ft 130 kts 262°
2026-05-08 05:06 39.64344 -106.91004 6532 ft 113 kts 261°
2026-05-08 05:07 39.64244 -106.91905 6500 ft 89 kts 262°
2026-05-08 05:07 39.64166 -106.92613 6472 ft 71 kts 263°
2026-05-08 05:07 39.64115 -106.93033 6473 ft 22 kts 259°
2026-05-08 05:07 39.64025 -106.93140 6460 ft 18 kts 155°
2026-05-08 05:08 39.64010 -106.93122 6469 ft 0 kts 123°
2026-05-08 05:11 39.64004 -106.93089 6470 ft 5 kts 91°
2026-05-08 05:11 39.64011 -106.93010 6467 ft 14 kts 82°
2026-05-08 05:11 39.64033 -106.92811 6477 ft 30 kts 82°
2026-05-08 05:12 39.64060 -106.92566 6484 ft 25 kts 82°
2026-05-08 05:12 39.64081 -106.92359 6489 ft 23 kts 82°
2026-05-08 05:12 39.64106 -106.92141 6495 ft 22 kts 82°
2026-05-08 05:12 39.64124 -106.91965 6499 ft 17 kts 82°
2026-05-08 05:13 39.64140 -106.91817 6504 ft 17 kts 82°
2026-05-08 05:13 39.64157 -106.91651 6509 ft 17 kts 82°
2026-05-08 05:13 39.64120 -106.91538 6512 ft 12 kts 113°